Theta_e
335 330 327 327 328 329 329 328 324 322 321 321 322 321 320 321 324 328 330 331 331 331 330 330 331 331 330 330 328 326 323 322 322 326 334 336 333 334 334 335 336 335 333
334 327 326 329 331 331 331 329 324 321 321 321 320 322 327 330 331 331 330 330 329 329 328 329 329 328 328 328 328 328 329 329 326 323 322 329 338 339 340 337 336 335 335
336 326 327 331 332 333 332 327 322 321 321 320 325 330 332 330 329 329 329 329 328 328 328 328 329 329 329 329 329 328 328 329 329 330 327 323 325 332 335 340 339 336 335
335 326 328 331 333 333 330 324 321 321 321 328 332 333 330 331 330 329 328 327 327 326 326 326 327 328 329 330 330 330 329 328 329 329 330 330 324 331 337 338 338 337 335
329 327 329 331 333 333 327 322 321 321 329 331 330 331 331 329 327 323 320 318 318 317 317 318 318 319 321 324 326 328 330 330 330 328 329 330 330 329 340 341 339 338 335
329 328 329 331 334 330 323 321 322 330 331 331 331 329 327 323 317 316 317 317 317 317 317 316 316 316 315 315 316 318 321 324 328 329 328 328 334 335 340 339 337 338 337
329 329 330 333 333 325 321 322 330 331 331 331 328 324 318 316 318 319 319 318 318 317 316 316 315 315 315 315 315 315 317 318 320 321 324 327 333 339 339 338 338 338 337
330 330 332 334 325 322 322 330 331 331 333 329 323 318 317 318 319 319 319 318 317 317 317 315 316 316 315 314 315 316 317 317 319 320 322 322 329 337 338 339 340 339 338
330 332 334 327 323 321 327 331 331 333 332 327 322 318 317 318 318 318 318 318 317 317 316 315 314 316 316 316 315 315 317 318 318 320 324 327 332 334 338 338 339 338 335
332 333 328 324 322 324 330 332 333 334 333 329 323 318 319 319 319 318 317 317 317 315 314 314 316 318 318 319 319 319 318 316 317 322 323 329 336 337 339 339 338 335 330
332 330 325 322 322 328 332 333 333 334 334 329 322 319 318 319 318 317 316 317 315 313 312 314 317 318 317 316 315 318 319 318 319 320 325 328 330 332 333 333 334 334 335
332 327 324 322 323 329 333 333 334 335 333 329 325 319 318 318 317 316 316 316 313 311 313 316 319 317 314 313 315 317 318 318 319 320 320 323 325 323 323 323 323 324 325
327 325 322 322 326 331 333 333 334 334 334 332 332 321 317 317 316 316 316 314 312 312 315 318 317 314 315 315 318 318 319 319 319 321 321 321 321 321 321 322 322 322 322
324 321 322 324 328 330 332 333 333 335 335 333 333 321 318 317 315 316 314 312 311 311 315 318 317 316 316 314 314 315 318 320 321 320 323 321 321 323 323 323 323 323 323
323 322 325 327 330 332 334 333 334 336 336 335 333 322 318 317 316 315 313 310 310 312 317 317 317 317 316 314 313 312 312 315 317 318 321 324 325 325 326 326 325 324 324
326 330 329 330 331 333 335 336 337 337 337 336 333 322 318 316 315 313 311 309 309 311 314 318 317 317 316 316 315 314 313 312 311 311 315 317 320 323 323 324 324 324 324
334 336 332 335 335 335 337 336 338 338 336 336 332 321 318 316 314 312 310 308 308 309 313 318 318 317 316 316 316 315 314 312 311 309 309 312 315 315 316 319 320 321 321
339 334 335 338 339 339 339 339 339 338 336 337 332 324 318 316 313 311 309 307 307 309 311 316 318 317 317 317 317 317 315 311 309 308 308 312 312 307 309 315 318 319 320
340 336 337 339 340 339 340 340 340 337 336 336 329 323 318 316 312 310 308 306 306 305 308 312 316 317 317 318 317 318 316 314 311 309 309 309 306 307 307 306 315 315 314
340 340 338 339 340 340 340 340 339 336 337 332 329 322 318 314 311 309 308 306 305 303 308 312 313 311 310 317 318 318 318 317 313 311 310 308 306 306 307 306 306 305 305
339 340 339 339 341 340 340 340 334 338 336 331 330 320 317 313 310 309 307 306 305 303 307 312 312 311 307 311 317 319 319 313 314 312 311 309 307 307 307 306 306 306 306
338 339 340 340 342 341 339 335 333 330 328 329 327 320 317 313 310 308 306 306 304 303 306 312 313 309 306 307 315 318 314 316 316 315 313 311 310 308 307 306 306 306 306
342 340 340 340 341 338 337 337 336 328 326 326 324 320 316 313 309 307 306 305 305 304 305 308 308 306 305 306 314 316 318 312 311 310 313 313 311 309 308 306 306 305 306
344 344 343 341 331 330 338 337 332 330 328 328 322 318 317 313 309 306 306 306 306 305 303 303 305 306 305 306 308 310 310 311 308 307 312 311 309 309 310 305 307 305 306
344 344 341 340 329 335 338 332 332 331 332 328 322 318 317 312 309 307 306 307 307 306 304 303 304 305 305 305 306 306 306 306 306 307 306 306 306 307 307 307 307 306 306
333 329 331 338 331 329 332 330 329 332 332 326 323 318 318 312 310 308 310 309 307 307 306 303 304 305 305 305 305 306 306 305 306 306 307 307 306 305 306 306 306 305 307
Wind_Speed
16 15 15 16 13 11 8 7 7 8 8 9 9 9 9 9 9 9 8 6 6 5 5 5 5 4 4 3 2 2 2 2 2 3 3 3 3 2 2 2 3 5 6
17 17 16 15 13 10 8 7 7 8 8 8 9 10 10 9 8 7 6 6 5 4 4 4 4 3 2 2 2 1 2 3 4 5 6 6 6 4 2 1 1 4 4
15 18 17 14 12 9 6 6 7 8 8 10 10 10 8 7 6 5 5 5 4 4 3 3 2 2 2 2 1 1 1 2 4 6 7 8 8 9 8 6 4 3 4
20 19 17 14 11 8 6 7 8 9 10 10 9 7 6 5 5 5 4 4 4 4 4 4 4 4 4 4 4 4 3 3 4 5 7 9 10 9 7 9 9 5 4
20 18 16 13 10 8 7 8 9 10 10 8 6 5 5 4 4 4 4 5 5 5 5 6 7 7 7 7 7 7 6 6 7 8 7 9 11 11 9 8 9 8 6
19 19 16 13 10 8 8 9 11 11 8 7 5 4 4 5 5 5 4 4 4 5 7 8 8 8 7 6 7 8 7 7 8 10 10 8 11 13 10 9 9 7 7
18 17 16 13 10 10 10 12 11 9 6 5 4 4 5 4 3 3 6 8 9 10 11 10 10 9 9 8 8 8 7 7 9 9 11 9 8 11 8 5 6 7 8
17 17 16 13 13 12 13 13 11 8 5 5 5 4 3 1 4 6 8 9 10 10 10 10 9 9 9 9 8 7 8 8 9 9 9 8 6 11 11 9 9 10 11
17 16 14 14 14 15 15 13 10 7 5 4 3 2 1 2 5 8 10 11 10 10 11 11 11 9 11 12 10 7 8 9 10 9 7 5 7 9 11 10 10 11 13
18 16 15 15 15 16 16 12 8 6 4 2 1 1 2 4 6 8 10 10 11 12 11 11 11 10 11 11 11 10 10 9 7 7 5 2 3 6 8 7 8 9 9
21 18 18 17 17 17 15 11 9 6 3 1 1 2 4 6 8 8 9 10 12 12 10 9 9 10 11 13 13 11 10 9 8 3 4 3 3 2 3 4 6 7 8
23 22 19 19 18 17 14 12 10 6 2 1 2 3 5 7 8 9 10 11 11 8 6 7 8 12 14 15 15 13 12 10 8 6 3 2 3 4 4 5 6 7 7
23 23 22 21 19 18 15 13 10 6 2 0 3 4 6 8 8 8 9 10 8 6 6 6 8 11 15 18 18 18 18 15 12 9 7 6 4 6 9 8 11 12 14
25 24 24 23 22 20 17 13 11 7 4 1 3 4 5 8 8 8 9 10 7 5 4 5 7 11 14 17 18 18 18 18 17 13 13 8 7 8 8 5 5 8 10
27 26 26 24 23 21 17 15 12 9 5 3 5 6 6 8 9 8 9 8 5 4 3 3 4 7 11 15 18 20 19 17 16 16 15 15 14 14 14 13 11 8 6
29 26 27 26 23 21 18 15 12 10 6 5 6 6 8 8 9 9 8 6 3 2 1 2 1 4 8 11 16 19 20 20 20 18 16 14 13 14 15 15 14 14 13
29 28 29 27 24 22 19 17 15 11 9 6 7 7 8 8 9 9 8 6 5 3 1 2 1 2 4 8 11 14 17 18 20 19 17 14 15 15 16 16 15 18 19
33 32 31 29 28 25 22 19 16 13 10 8 7 8 8 9 10 9 9 7 6 4 2 5 4 2 3 5 7 9 12 14 17 18 18 19 18 18 15 15 15 16 18
37 34 33 32 31 28 23 19 17 15 12 10 8 8 7 8 9 9 8 7 5 3 3 5 6 5 6 5 5 6 7 9 12 14 16 17 17 17 18 17 15 12 11
40 37 36 36 33 29 26 23 21 19 15 12 9 8 6 7 8 8 8 6 5 2 4 5 4 4 3 9 7 7 5 5 8 9 11 12 13 15 17 17 18 17 18
38 39 39 38 34 31 28 27 26 22 16 13 9 8 6 6 7 6 6 5 5 2 3 6 4 1 0 6 11 11 6 4 6 7 7 7 8 11 13 13 14 16 17
32 33 35 36 34 29 27 29 27 20 16 11 11 9 6 6 6 6 3 5 3 2 2 4 4 2 1 5 12 13 8 6 5 4 3 2 2 4 6 8 8 10 14
24 28 31 32 28 26 28 27 15 16 15 15 13 8 7 6 5 3 3 3 3 1 4 5 2 2 4 3 11 8 5 5 7 3 3 2 3 4 3 4 5 5 8
23 26 30 25 13 27 34 25 20 21 19 18 12 9 8 5 3 1 1 2 3 1 1 3 2 2 5 6 5 4 4 4 4 4 4 1 4 6 4 4 5 4 6
15 12 16 19 13 14 25 25 30 29 21 19 15 12 10 6 3 3 2 1 2 2 2 2 4 4 4 4 4 3 3 4 5 4 3 3 6 5 2 3 6 4 6
12 18 21 22 17 21 26 25 22 22 22 21 18 16 11 7 4 6 3 2 2 2 3 2 4 5 5 4 5 5 6 7 7 7 5 5 5 5 6 5 7 9 8
Wind_Direction
172 169 155 151 153 146 145 143 134 123 119 116 112 107 103 101 97 91 86 80 74 70 69 66 61 47 37 36 28 359 325 288 259 229 212 192 177 155 123 91 61 42 37
165 165 157 153 151 148 150 143 135 132 127 118 111 107 102 98 93 89 80 73 71 62 53 53 53 55 54 42 40 24 311 294 280 259 240 229 217 218 228 260 341 12 14
174 165 161 157 155 151 147 144 135 128 120 115 112 108 105 96 85 69 55 41 36 29 20 15 3 352 342 333 319 312 257 255 260 258 254 247 234 234 244 254 269 301 319
176 169 163 158 153 154 156 146 135 126 121 120 118 109 91 73 58 47 41 32 25 16 6 351 343 333 312 302 293 281 269 258 260 260 255 243 236 230 242 256 252 261 277
171 168 165 162 159 162 157 145 135 131 130 124 107 84 68 56 54 57 51 33 16 1 345 337 330 325 324 316 300 286 282 279 271 263 258 244 232 228 247 261 259 252 266
175 171 167 164 164 166 158 147 144 139 128 109 94 83 83 89 78 58 48 32 1 343 332 331 327 321 316 307 293 289 290 277 270 268 267 253 237 232 248 271 251 250 292
175 172 169 166 168 169 161 151 145 133 123 108 92 98 103 93 70 23 8 4 354 346 345 346 337 326 319 315 316 318 315 297 288 285 279 268 239 235 239 235 238 253 291
182 176 173 172 172 169 161 151 146 140 130 118 114 115 117 85 358 355 355 352 355 356 350 349 342 340 333 330 328 324 321 316 307 304 301 290 232 218 219 207 225 243 261
182 180 177 178 174 167 160 156 153 148 139 122 122 140 125 15 355 351 348 347 354 353 348 352 357 10 12 12 12 353 332 327 323 322 322 298 224 218 213 216 230 240 257
183 184 182 180 176 168 163 163 161 152 140 126 157 42 9 1 347 342 344 345 352 349 359 7 23 23 11 8 8 7 2 347 325 342 334 346 232 228 233 240 259 267 268
187 185 184 182 176 173 170 167 168 163 168 137 89 351 335 337 337 341 344 352 352 358 2 14 19 21 8 4 7 8 1 5 8 11 29 34 336 316 295 286 278 277 275
190 184 185 182 178 177 177 182 177 172 156 121 323 319 317 329 335 337 344 350 351 359 19 26 24 18 19 26 31 26 20 17 19 29 42 351 325 344 329 319 302 290 284
184 186 182 181 181 184 188 191 186 169 151 19 339 310 321 324 323 327 338 342 355 17 27 25 16 35 41 42 47 47 48 47 44 36 39 26 360 318 299 290 282 286 289
188 186 182 183 185 187 192 197 195 186 204 254 326 312 317 312 312 319 335 342 355 16 34 34 36 45 44 47 50 54 57 57 55 53 53 41 34 30 29 4 331 309 289
193 188 186 188 189 190 192 193 197 210 229 292 318 307 308 309 309 315 330 339 0 32 61 54 51 47 51 54 62 64 66 65 63 61 59 65 64 61 56 52 46 31 15
197 193 192 192 192 195 200 199 202 218 239 278 297 316 306 305 306 316 331 336 350 27 70 125 95 48 48 67 72 74 66 60 58 57 54 51 54 54 53 52 58 53 50
204 199 197 194 198 203 206 208 207 217 239 279 296 309 309 312 312 316 330 325 325 314 194 174 174 41 71 84 79 75 70 62 55 55 54 56 57 58 58 55 50 52 48
216 210 203 202 205 210 212 210 213 216 234 266 277 298 305 309 312 317 326 325 324 289 229 201 207 216 177 115 95 86 74 69 73 64 60 70 67 59 57 51 58 58 56
222 220 213 213 213 212 210 212 217 221 236 251 261 283 297 305 303 319 329 327 325 297 225 204 217 219 216 180 132 110 89 75 74 73 71 75 70 65 60 59 70 63 49
229 227 225 221 217 215 216 213 211 218 234 231 252 272 281 289 308 320 324 332 335 329 202 215 218 193 177 194 173 157 142 115 98 93 82 77 66 60 56 58 56 52 49
238 234 231 226 220 218 216 210 206 216 222 224 248 259 274 290 299 317 328 320 332 332 209 215 210 208 19 184 179 170 158 132 130 109 93 80 63 57 59 62 56 46 47
237 233 228 224 224 220 213 207 211 210 211 221 239 243 258 278 308 317 310 316 331 304 223 204 210 266 356 181 186 176 166 138 150 139 116 94 43 46 53 62 55 38 31
227 234 233 227 232 219 223 229 222 227 228 227 236 234 241 278 306 307 321 329 343 333 242 223 229 51 60 128 188 196 186 175 138 133 215 180 304 313 338 19 8 9 9
219 227 227 229 332 291 232 239 241 259 235 248 245 241 238 272 285 285 295 342 7 16 264 219 151 82 67 94 126 162 187 172 161 117 116 87 324 282 275 316 328 308 333
193 231 279 235 352 254 232 246 266 242 241 250 235 236 238 266 229 174 135 52 11 35 64 138 115 106 97 86 86 97 85 93 92 153 138 48 37 71 73 321 321 281 307
114 357 279 246 267 263 243 255 250 250 227 234 231 234 234 252 220 173 156 114 93 51 80 131 128 117 103 73 68 82 87 88 79 82 77 49 22 349 318 329 342 319 288